This is the latest recevied weather packets stored in our database for station/object VK5ALG-13. If no packets are shown the sender has not sent any weather packets the latest 10 day(s).
| Time | Temp. | Humidity | Pressure | Rain* | Wind** | Luminosity | Snow |
|---|---|---|---|---|---|---|---|
| 1778138427 | 15° C | 57% | 1030.3 hPa | 0 mm | - | - | - |
| 1778137823 | 15° C | 56% | 1030.3 hPa | 0 mm | - | - | - |
| 1778136033 | 16.11° C | 51% | 1030.2 hPa | 0 mm | - | - | - |
| 1778134825 | 15.56° C | 52% | 1030.1 hPa | 0 mm | - | - | - |
| 1778132451 | 16.11° C | 52% | 1030.3 hPa | 0 mm | - | - | - |
| 1778129433 | 17.22° C | 49% | 1030.2 hPa | 0 mm | - | - | - |
| 1778125228 | 16.11° C | 50% | 1030.4 hPa | 0 mm | - | - | - |
| 1778124020 | 17.78° C | 47% | 1030.7 hPa | 0 mm | - | - | - |
| 1778122833 | 16.67° C | 50% | 1030.7 hPa | 0 mm | - | - | - |
| 1778119836 | 16.11° C | 51% | 1031.1 hPa | 0 mm | - | - | - |
| 1778119231 | 16.11° C | 50% | 1031.3 hPa | 0 mm | - | - | - |
| 1778114423 | 16.11° C | 52% | 1030.8 hPa | 0 mm | - | - | - |
| 1778107823 | 13.89° C | 65% | 1030.3 hPa | 0 mm | - | - | - |
| 1778092231 | 11.11° C | 69% | 1027.6 hPa | 0 mm | - | - | - |
| 1778091627 | 10.56° C | 70% | 1027.5 hPa | 0 mm | - | - | - |
| 1778084425 | 11.11° C | 68% | 1027.5 hPa | 0 mm | - | - | - |
| 1778083218 | 11.67° C | 65% | 1027.3 hPa | 0 mm | - | - | - |
| 1778082634 | 12.22° C | 63% | 1027.5 hPa | 0 mm | - | - | - |
| 1778071234 | 12.78° C | 70% | 1026.5 hPa | 0 mm | - | - | - |
| 1778061026 | 13.89° C | 84% | 1024.8 hPa | 0 mm | - | - | - |
| 1778059236 | 14.44° C | 85% | 1024.3 hPa | 0 mm | - | - | - |
| 1778058632 | 14.44° C | 83% | 1024.1 hPa | 0 mm | - | - | - |
| 1778058028 | 15° C | 83% | 1023.8 hPa | 0 mm | - | - | - |
| 1778056821 | 15° C | 82% | 1023.5 hPa | 0.25 mm | - | - | - |
| 1778055635 | 15° C | 82% | 1023.3 hPa | 0.25 mm | - | - | - |
* Rain latest hour (hover to see other rain measurements)
** Current wind speed in m/s (hover to see current wind gust speed)